This is the latest recevied weather packets stored in our database for station/object DG4MJS-10. If no packets are shown the sender has not sent any weather packets the latest 10 day(s).
| Time | Temp. | Humidity | Pressure | Rain* | Wind** | Luminosity | Snow |
|---|---|---|---|---|---|---|---|
| 1787952572 | 19.44° C | 72% | 1017.5 hPa | - | - | - | - |
| 1787951672 | 19.44° C | 73% | 1016.6 hPa | - | - | - | - |
| 1787950772 | 20° C | 73% | 1016.7 hPa | - | - | - | - |
| 1787949872 | 19.44° C | 74% | 1016.8 hPa | - | - | - | - |
| 1787948972 | 20° C | 76% | 1017 hPa | - | - | - | - |
| 1787948072 | 20° C | 79% | 1018.1 hPa | - | - | - | - |
| 1787947172 | 20° C | 78% | 1017.1 hPa | - | - | - | - |
| 1787946272 | 20° C | 78% | 1016.9 hPa | - | - | - | - |
| 1787945372 | 20° C | 78% | 1016 hPa | - | - | - | - |
| 1787944472 | 20° C | 78% | 1016.2 hPa | - | - | - | - |
| 1787943572 | 20° C | 79% | 1016.2 hPa | - | - | - | - |
| 1787942672 | 20° C | 79% | 1016.4 hPa | - | - | - | - |
| 1787941771 | 20.56° C | 77% | 1016 hPa | - | - | - | - |
| 1787940871 | 20.56° C | 75% | 1016.1 hPa | - | - | - | - |
| 1787939971 | 20.56° C | 73% | 1015.7 hPa | - | - | - | - |
| 1787939071 | 20.56° C | 73% | 1015.3 hPa | - | - | - | - |
| 1787938171 | 20.56° C | 74% | 1015.5 hPa | - | - | - | - |
| 1787937270 | 21.11° C | 70% | 1015.6 hPa | - | - | - | - |
| 1787936370 | 21.11° C | 69% | 1014.7 hPa | - | - | - | - |
| 1787935470 | 21.11° C | 70% | 1014.8 hPa | - | - | - | - |
| 1787934570 | 21.11° C | 70% | 1014.5 hPa | - | - | - | - |
| 1787933672 | 21.67° C | 71% | 1014.8 hPa | - | - | - | - |
| 1787932772 | 21.67° C | 70% | 1014.5 hPa | - | - | - | - |
| 1787931872 | 22.22° C | 70% | 1014.7 hPa | - | - | - | - |
| 1787930971 | 22.22° C | 73% | 1015.1 hPa | - | - | - | - |
* Rain since midnight (hover to see other rain measurements)
** Current wind speed in m/s (hover to see current wind gust speed)